sat.trackr.live / text

‹ back to catalog

STARLINK-36545

NORAD 67505 · 2026-012N

PAYLOAD ACTIVE UNKNOWN

§ Identity

Operator
Country
US
Launch date
2026-01-18
Launch site
AFETR
Launch vehicle
Mass (kg)
RCS (m²)

Purposes: comms

External: N2YO · Heavens-Above · Gunter

§ Orbital elements

Epoch: 2026-09-19T10:02:02.836032Z

Period
94.27 min
Inclination
43.0018°
Eccentricity
0.0001252
Mean motion
15.27604234 rev/d
Perigee alt
482.1 km
Apogee alt
483.8 km
Semi-major
6,861.1 km
B*
3.6538e-4
RAAN
300.0149°
Arg perigee
265.3361°
Mean anomaly
94.7348°
Rev number
3,739

§ Raw data

STARLINK-365451 67505U 26012N   26262.41808838  .00009813  00000+0  36538-3 0  99902 67505  43.0018 300.0149 0001252 265.3361  94.7348 15.27604234 37395

JSON: /api/v1/satellites/67505 · /tle

For live sub-satellite position, see the globe view (requires WebGL).

§ Visibility from observer

Set your observer location to see the next 7 days of passes ≥ 10°. The values pass through the URL so the page stays shareable.

No JS? Fill the form by hand. The geolocation button needs JavaScript.